Location: Neu Zarnow
(53.1953°N, 14.4875°E)
Time: 13:37:32
(UTC+00:00)

Daily predictions for brighter satellites

Satellite Brightness Start Highest point End
(mag) Time Altitude Azimuth Time Altitude Azimuth Time Altitude Azimuth
Cosmos 1818 3.6 18:43:33 10° SSW 18:48:54 61° SE 18:54:19 10° NE
NOSS 3-4 (A) 4.0 18:43:11 10° WSW 18:49:06 66° NW 18:55:39 10° NE
NOSS 3-4 (C) 4.0 18:43:17 10° WSW 18:49:13 67° NW 18:55:45 10° NE
Cosmos 192 4.4 18:44:14 10° NNW 18:49:14 89° ENE 18:54:11 10° SSE
Cosmos 1825 2.8 18:49:02 10° NNW 18:52:47 60° W 18:56:30 10° S
USA 102 1.3 18:54:38 23° E 18:55:13 42° NNE 19:02:39 10° NNW
NOSS 7 (E) 4.3 18:52:19 10° SW 18:55:50 89° SE 18:58:55 10° NE
Cosmos 1655 Rocket 4.3 18:52:23 10° N 18:58:32 52° ENE 19:04:36 10° SSE
Abrixas rocket 2.8 18:59:23 10° SSW 19:00:09 12° S 19:00:44 11° SE
CZ-4C R/B 3.5 18:55:03 10° W 19:00:17 46° NNW 19:06:41 10° NE
Cosmos 2227 Rocket 3.1 18:55:48 10° SSE 19:00:31 28° ESE 19:05:14 10° NE
BREEZE-M DEB (TANK) 4.2 18:58:39 10° SW 19:01:55 51° SSE 19:10:31 10° E
Cosmos 2058 3.7 18:58:15 10° NNW 19:02:22 55° W 19:06:26 10° S
ATLAS 2AS CENTAUR R/B 3.3 18:54:48 10° SW 19:02:45 80° NW 19:10:28 10° NE
Cosmos 1633 2.8 19:01:38 10° N 19:05:11 52° ENE 19:08:41 10° SSE
Cosmos 2297 Rocket 2.7 19:01:52 10° S 19:07:01 38° ESE 19:12:12 10° NE
Lacrosse 5 rocket 2.2 19:04:30 10° WNW 19:08:32 50° N 19:12:49 10° ENE
IRIDIUM 106 4.5 19:03:32 10° SSE 19:08:37 56° E 19:13:44 10° NNE
FALCON 9 DEB 4.4 19:10:23 10° S 19:12:28 17° SE 19:14:19 11° ESE
Genesis I 3.5 19:09:45 10° NW 19:13:44 70° SW 19:17:40 10° SE
Meteor 2-14 Rocket 4.5 19:07:48 10° N 19:13:53 71° ENE 19:19:57 10° SSE
Resurs 01 Rocket 1.7 19:09:28 10° SSE 19:13:55 69° ENE 19:18:22 10° N
Cosmos 2333 Rocket 4.4 19:10:35 10° NW 19:14:58 23° WSW 19:19:21 10° SSW
Resurs 1-3 3.8 19:11:18 10° S 19:15:41 75° WSW 19:20:05 10° NNW
Cosmos 2219 3.6 19:10:58 10° S 19:16:08 40° ESE 19:21:21 10° NE
BREEZE-M DEB (TANK) 3.9 19:12:51 10° WSW 19:17:03 64° SSE 19:32:18 10° E
Meteor 1-4 Rocket 4.3 19:16:24 12° ESE 19:17:57 15° E 19:20:05 10° NE
CZ-2C R/B 4.3 19:13:57 10° N 19:18:42 37° WNW 19:23:29 10° SW
SJ-6B 4.2 19:16:17 10° SSW 19:19:46 36° W 19:23:19 10° NNW
Cosmos 1763 Rocket 4.3 19:15:23 10° NNW 19:20:05 36° NE 19:24:15 12° ESE
ERS-2 3.9 19:17:47 10° N 19:21:11 37° WNW 19:24:34 10° SW
Cosmos 2084 Rocket 4.1 19:20:47 10° S 19:24:11 28° ESE 19:27:40 10° ENE
FALCON 9 DEB 4.1 19:22:04 10° SSW 19:24:27 21° SE 19:26:05 14° ESE
Cosmos 389 Rocket 2.5 19:21:03 10° SSW 19:24:35 88° ESE 19:28:11 10° NNE
Cosmos 1190 Rocket 4.4 19:20:01 10° S 19:24:54 42° ESE 19:29:48 10° NE
NOSS 3-1 (C) 4.2 19:18:20 10° NW 19:25:15 62° NE 19:32:59 12° ESE
Ariane Rocket 3.6 19:21:12 10° S 19:26:09 57° WSW 19:31:10 10° NNW
Terra 3.3 19:25:00 11° ESE 19:28:24 24° ENE 19:32:10 10° N
Cosmos 614 Rocket 4.0 19:23:16 10° SSW 19:28:25 87° WNW 19:33:34 10° NNE
ATLAS 3B R/B 4.2 19:23:53 10° WNW 19:29:56 32° WSW 19:36:11 10° S
Cosmos 2251 Rocket 4.0 19:24:55 10° SW 19:30:15 68° WNW 19:35:36 10° NNE
FALCON 9 DEB 3.0 19:27:24 10° WSW 19:30:48 70° SSE 19:34:14 10° E
Cosmos 2279 Rocket 4.1 19:28:46 10° S 19:34:58 86° WNW 19:41:13 10° N
SPOT 5 3.7 19:34:55 15° ESE 19:38:14 35° ENE 19:42:40 10° N
SPOT 1/Viking Rocket 3.6 19:33:39 12° SSE 19:38:24 66° ENE 19:43:36 10° N
SL-16 R/B 2.2 19:33:01 10° NNW 19:38:46 78° ENE 19:43:25 16° SE
Cosmos 2151 3.2 19:35:13 10° NNW 19:39:33 76° W 19:43:50 10° S
Meteor 2-21 Rocket 4.4 19:33:55 10° N 19:40:01 84° E 19:46:06 10° SSE
USA 215 3.3 19:34:16 13° ESE 19:40:14 85° SSW 19:46:49 10° WNW
Cosmos-2242 3.1 19:36:41 10° S 19:40:55 57° E 19:45:08 10° NNE
FALCON 9 DEB 3.9 19:43:36 10° SSW 19:46:12 25° SSE 19:46:42 24° SE
SPOT 3 Rocket 3.8 19:41:12 10° S 19:46:22 71° WSW 19:51:34 10° NNW
COSMOS 2455 3.4 19:44:56 10° S 19:50:19 36° ESE 19:55:44 10° NE
Meteor 2-16 Rocket 4.5 19:44:10 10° N 19:50:22 85° E 19:56:10 12° SSE
SL-4 R/B 2.9 19:49:13 10° SW 19:53:14 34° SSE 19:57:28 10° E
ATLAS 5 CENTAUR R/B 3.9 19:49:24 10° WNW 19:53:17 26° N 19:57:43 10° NE
Cosmos 1408 Rocket 4.2 19:51:20 10° N 19:55:26 40° ENE 19:57:46 22° SE
Cosmos 2266 Rocket 4.1 19:49:48 10° NNW 19:56:13 81° W 20:02:29 10° S
ERS-1 Rocket 3.3 19:53:53 19° SE 19:57:16 52° ENE 20:02:09 10° N
IGS 5A 4.1 19:54:22 10° S 19:58:26 55° W 20:02:32 10° NNW
Landsat 7 4.2 19:55:13 11° S 19:59:49 64° WSW 20:04:35 10° NNW
OBJECT-B 3.8 19:58:29 10° WSW 19:59:55 12° W 20:01:21 10° WNW
Cosmos 1862 4.0 20:00:26 10° N 20:04:10 38° ENE 20:05:51 25° ESE
Cosmos 1943 4.0 19:59:12 10° NNW 20:04:31 41° NE 20:08:18 18° ESE
Cosmos 2221 3.6 20:05:05 23° ESE 20:06:22 27° E 20:10:00 10° NNE
ARIANE 5 R/B 2.5 20:04:04 21° SSE 20:07:02 83° ENE 20:11:26 10° NNW
USA 245 2.9 20:05:50 22° S 20:07:56 72° WSW 20:10:48 10° NNW
Cosmos 2344 3.8 20:00:45 10° WSW 20:08:09 74° NW 20:16:40 10° NE
Cosmos 407 Rocket 3.7 20:03:52 10° SSW 20:09:01 75° WNW 20:14:15 10° NNE
Meteor 2-3 Rocket 4.3 20:06:36 10° NNW 20:12:15 57° W 20:17:47 10° S
Orbus 7S? 4.0 20:10:19 10° WSW 20:13:45 75° NNW 20:21:23 10° ENE
Cosmos 1743 Rocket 4.4 20:10:10 10° N 20:14:11 35° ENE 20:15:53 25° ESE
Cosmos 44 Rocket 3.7 20:15:49 10° SSW 20:20:40 46° ESE 20:25:39 10° NE
Meteor 1-27 4.3 20:14:55 10° S 20:20:42 87° E 20:26:35 10° NNE
Cosmos 1140 Rocket 3.8 20:17:12 10° SW 20:22:18 68° WNW 20:27:27 10° NNE
CZ-2C R/B 3.8 20:18:22 10° NNE 20:22:49 76° WNW 20:27:15 10° SSW
Cosmos 2237 Rocket 4.1 20:20:53 10° NW 20:25:13 23° WSW 20:29:33 10° SSW
Cosmos 1954 Rocket 3.9 20:21:11 10° SSW 20:26:20 79° ESE 20:31:32 10° NNE
Timation 2 Rocket 4.0 20:22:56 10° SW 20:29:28 85° WNW 20:35:45 10° NNE
Cosmos 1606 4.1 20:31:58 22° E 20:31:58 22° E 20:34:51 10° NE
Cosmos 1500 Rocket 3.9 20:27:58 10° N 20:32:22 51° ENE 20:33:58 34° SE
NOSS 2 (A) 4.0 20:29:59 10° NW 20:32:55 86° NE 20:33:00 82° ESE
Meteor 2-15 4.4 20:29:12 20° S 20:33:31 69° E 20:39:33 10° NNE
Cosmos 1766 Rocket 4.2 20:29:20 10° NNW 20:33:33 52° W 20:36:21 20° SSW
USA 229 DEB 3.9 20:27:32 10° NW 20:34:45 84° NE 20:39:35 25° SE
USA 229 3.9 20:27:38 10° NW 20:34:51 84° NE 20:39:41 25° SE
Cosmos 2263 Rocket 3.1 20:34:38 26° ESE 20:35:25 27° ESE 20:40:03 10° NE
Spot 2 Rocket 3.9 20:32:07 19° S 20:35:38 58° W 20:40:39 10° NNW
CARTOSAT-1 3.9 20:33:27 25° S 20:35:52 62° WSW 20:40:10 10° NNW
Cosmos 1244 Rocket 4.5 20:29:39 10° N 20:36:05 84° E 20:39:58 25° SSE
Aureole 1 Rocket 4.1 20:35:06 30° SE 20:36:21 34° ESE 20:40:26 10° NE
BREEZE M DEB (TANK) 2.3 20:31:01 10° WSW 20:36:22 45° S 20:36:34 44° SSE
FALCON 9 DEB 4.4 20:40:11 10° WSW 20:41:38 24° SW 20:41:38 24° SW
H-2A R/B 3.7 20:39:35 10° NNE 20:43:43 50° E 20:44:42 41° SE
Cosmos 2227 Rocket 2.6 20:38:32 10° SW 20:44:10 66° NW 20:49:51 10° NNE
Cosmos 2082 3.6 20:38:37 10° SSW 20:44:13 79° ESE 20:49:53 10° NNE
FALCON 9 DEB 4.1 20:44:46 10° WSW 20:46:28 29° SW 20:46:28 29° SW
Lacrosse 5 rocket 1.5 20:43:47 10° WNW 20:48:04 78° NNE 20:49:58 33° ESE
Cosmos 468 Rocket 4.4 20:44:13 10° NNW 20:49:13 54° WSW 20:51:46 28° S
Cosmos 2208 Rocket 4.4 20:44:42 10° NNW 20:49:57 55° ENE 20:52:16 32° ESE
CZ-4C R/B 4.1 20:44:48 10° WNW 20:50:16 34° N 20:56:47 10° ENE
Resurs 01 Rocket 4.0 20:47:49 10° SW 20:50:53 18° W 20:53:57 10° NW
Cosmos 1869 4.0 20:47:58 17° SSW 20:50:54 51° WNW 20:54:44 10° N
Cosmos 2297 Rocket 3.1 20:45:28 10° SW 20:50:58 51° NW 20:56:30 10° NNE
Cosmos 1553 Rocket 4.0 20:48:27 30° SSE 20:51:22 58° E 20:57:21 10° NNE
Meteor 1-4 Rocket 3.3 20:50:31 21° SW 20:52:32 49° WNW 20:56:02 10° N
NOSS 3-1 (A) 4.0 20:45:27 10° NW 20:52:41 88° SW 20:57:37 28° SE
Cosmos 1603 3.7 20:47:41 10° NNW 20:53:27 79° NE 20:55:59 35° SE
Cosmos 841 Rocket 3.4 20:48:56 10° NNW 20:54:12 87° ENE 20:56:15 38° SSE
ATLAS 2AS CENTAUR R/B 4.2 20:47:20 10° W 20:54:45 42° NNW 21:01:51 10° NE
ALOS 2 4.4 20:58:14 18° E 20:59:40 21° ENE 21:02:56 10° N
FALCON 9 DEB 4.5 20:56:47 10° WSW 20:58:12 25° WSW 20:58:12 25° WSW
Cosmos 2219 4.2 20:54:49 10° WSW 21:00:15 48° NW 21:05:43 10° NNE
Cosmos 1763 Rocket 4.2 20:57:12 10° NW 21:02:01 45° WSW 21:04:17 27° SSW
Cosmos 2084 Rocket 3.9 20:59:27 10° WSW 21:03:24 58° NW 21:07:29 10° NE
Terra 2.1 21:03:52 35° S 21:05:47 64° WSW 21:10:33 10° NNW
FALCON 9 DEB 3.0 21:04:15 10° W 21:07:41 86° SSW 21:07:41 86° SSW
Cosmos 540 Rocket 3.6 21:04:49 10° NNW 21:09:54 67° WSW 21:11:41 40° S
Cosmos 1814 Rocket 4.0 21:04:36 10° NNW 21:09:58 84° ENE 21:11:45 43° SSE
NOSS 2-1 (E) 3.4 21:10:54 48° ENE 21:10:54 48° ENE 21:13:45 10° NE
Cosmos 921 Rocket 2.9 21:06:55 10° NNW 21:11:23 86° WSW 21:12:21 54° SSE
SPOT 5 3.8 21:14:07 25° SSW 21:16:16 39° W 21:20:51 10° NNW
NOSS 3-1 (C) 4.4 21:09:12 10° NW 21:16:21 54° SW 21:20:23 30° S
Meteor 2-2 Rocket 4.3 21:15:41 25° SSW 21:19:12 76° WNW 21:24:55 10° N
SL-16 R/B 3.9 21:17:56 10° NW 21:22:19 23° WSW 21:25:19 15° SW
Cosmos 1842 Rocket 4.0 21:20:26 32° SW 21:22:19 61° WNW 21:26:47 10° N
Cosmos 1174 3.7 21:18:15 10° NW 21:22:58 89° SW 21:23:25 70° SE
USA 215 4.0 21:21:35 30° S 21:23:47 37° SW 21:29:49 10° WNW
NOSS 2-2 (E) 4.5 21:20:01 10° NW 21:24:54 64° NE 21:28:18 28° ESE
Cosmos 1437 Rocket 3.3 21:29:53 44° ENE 21:29:53 44° ENE 21:33:06 10° NNE
SL-4 R/B 2.2 21:27:59 10° WSW 21:32:33 69° S 21:33:32 52° ESE
Cosmos 2315 Rocket 4.4 21:31:12 38° SE 21:33:00 47° E 21:39:04 10° NNE
Meteor 1-25 Rocket 4.2 21:29:09 10° NNW 21:34:55 77° ENE 21:36:42 46° SSE
COSMOS 2455 3.3 21:30:03 10° SW 21:36:01 62° NW 21:42:01 10° NE
ERS-1 Rocket 4.5 21:33:53 19° SW 21:36:20 28° W 21:40:39 10° NW
ATLAS 5 CENTAUR R/B 3.5 21:34:38 10° NW 21:39:12 34° NNE 21:44:31 10° E
Sich 1 2.8 21:36:45 10° NNW 21:41:03 82° WSW 21:41:29 70° SSW
Cosmos 1805 Rocket 3.6 21:37:02 10° NNW 21:41:21 65° W 21:41:58 56° SW
Cosmos 2227 4.1 21:40:44 44° S 21:42:34 71° ESE 21:48:18 10° NE
Cosmos 2221 3.7 21:41:54 25° WSW 21:43:48 38° WNW 21:47:50 10° N
Meteor 1-20 Rocket 4.2 21:40:31 10° NNW 21:46:22 86° WSW 21:48:01 49° S
Cosmos 1943 3.6 21:43:18 10° NW 21:48:43 49° WSW 21:50:06 40° SSW
Cosmos 1745 Rocket 4.3 21:44:43 10° NNW 21:50:54 59° W 21:53:25 35° SSW
TIMED 4.4 21:46:37 10° NNW 21:51:01 81° ENE 21:51:21 74° ESE
SeaSat 1 2.7 21:46:29 10° NE 21:51:17 48° ESE 21:51:18 48° ESE
Cosmos 1470 Rocket 4.1 21:50:28 10° N 21:54:44 45° ENE 21:55:06 44° E
Cosmos 1709 Rocket 3.9 21:49:58 10° NNW 21:56:13 84° W 21:58:10 47° S
NOSS 2-1 (C) 3.9 21:56:12 36° W 21:57:06 47° NW 22:00:44 10° NE
Iridium 4 Rocket 3.7 21:58:16 50° ESE 21:59:03 55° E 22:04:24 10° N
USA 281 4.2 21:56:17 19° ESE 22:00:35 41° NE 22:06:40 10° NNW
Spot 4 3.8 22:00:15 63° S 22:01:00 80° WSW 22:05:55 10° NNW
Meteor 1-26 Rocket 4.5 21:59:48 49° SE 22:01:01 59° E 22:06:41 10° NNE
Cosmos 1633 Rocket 2.9 21:57:38 10° N 22:02:01 84° E 22:02:12 80° SE
Cosmos 44 Rocket 4.4 21:57:17 10° WSW 22:02:17 48° NW 22:07:23 10° NE
NOSS 2-1 (D) 4.1 22:02:34 30° W 22:03:44 43° NNW 22:07:21 10° NE
Cosmos 1606 3.8 22:06:56 35° W 22:07:23 37° WNW 22:10:55 10° N
S3M 4.3 22:05:25 33° SW 22:08:24 64° WNW 22:14:47 10° N
Cosmos 883 Rocket 4.4 22:06:44 46° S 22:08:47 89° W 22:15:08 10° N
Cosmos 1933 Rocket 4.2 22:06:42 10° N 22:10:55 44° ENE 22:11:11 44° E
Cosmos 1500 3.6 22:08:18 10° N 22:11:44 58° NE 22:11:44 58° NE
Cosmos 1812 4.2 22:12:58 27° ENE 22:12:58 27° ENE 22:15:35 10° NNE
Cosmos 1666 Rocket 3.6 22:08:16 10° NNW 22:12:44 66° W 22:12:59 64° WSW
Cosmos 2263 Rocket 2.4 22:16:15 31° SW 22:18:56 66° NW 22:24:32 10° NNE
Aureole 1 Rocket 4.3 22:17:34 21° WSW 22:20:42 42° WNW 22:24:46 10° NNE
Cosmos 1328 Rocket 3.6 22:22:33 69° E 22:22:33 69° E 22:26:56 10° NNE
Cosmos 1242 Rocket 3.2 22:23:55 54° NNE 22:23:55 54° NNE 22:26:49 10° NNE
Cosmos 968 Rocket 3.5 22:22:53 60° SE 22:23:17 62° ESE 22:28:30 10° NNE
NOSS 2-2 (D) 4.2 22:19:01 10° NW 22:24:04 80° SW 22:25:44 51° SSE
Lacrosse 5 rocket 2.9 22:23:04 10° WNW 22:25:35 27° W 22:25:35 27° W
Cosmos 1782 2.9 22:28:48 74° N 22:28:48 74° N 22:32:31 10° N
COBE Rocket 3.8 22:29:10 64° ESE 22:29:45 72° ENE 22:34:40 10° N
Cosmos 1844 Rocket 3.0 22:30:56 45° ESE 22:31:07 45° ESE 22:36:25 10° NE
Thor Agena Rocket 4.0 22:27:09 10° NNE 22:32:03 44° E 22:32:22 44° ESE
Cosmos 1151 Rocket 3.0 22:34:17 78° WNW 22:34:17 78° WNW 22:38:39 10° N
ALOS 2 2.7 22:35:37 65° W 22:35:37 65° W 22:40:00 10° NNW
Cosmos 1536 4.2 22:32:03 10° N 22:35:40 29° ENE 22:35:54 29° ENE
CZ-4C R/B 3.6 22:33:51 10° NW 22:40:14 50° NNE 22:47:50 10° ESE
Terra 4.4 22:44:07 10° W 22:44:31 10° W 22:44:55 10° WNW
Cosmos 1933 4.4 22:45:09 36° W 22:45:29 36° WNW 22:49:17 10° N
ATLAS 2AS CENTAUR R/B 4.2 22:40:16 10° WNW 22:47:28 40° N 22:54:14 10° E
Cosmos 2082 Rocket 3.8 22:45:52 10° NNW 22:50:48 30° NE 22:55:43 10° E
Meteor 1-10 Rocket 4.4 22:51:59 49° SE 22:52:46 54° E 22:58:11 10° NNE
Cosmos 1833 Rocket 3.6 22:47:34 10° NNW 22:53:02 45° NE 22:56:05 24° ESE
Cosmos 2228 Rocket 3.9 22:55:22 40° E 22:55:22 40° E 22:59:21 10° NNE
SL-16 R/B 4.3 22:51:40 10° ESE 22:56:45 27° NE 23:01:50 10° N
Cosmos 1486 Rocket 3.9 22:57:26 65° SSW 22:58:16 88° WNW 23:03:39 10° NNE
Cosmos 1271 Rocket 3.9 23:00:44 35° ENE 23:00:44 35° ENE 23:03:48 10° NNE
Meteor 1-5 Rocket 4.2 22:54:57 10° NNW 23:00:38 68° W 23:01:31 58° SSW
Cosmos 2154 Rocket 4.0 22:56:01 10° N 23:02:25 84° ENE 23:04:10 51° SSE
USA 290 4.1 23:04:40 10° NNW 23:06:25 28° NW 23:06:25 28° NW
SL-4 R/B 4.0 23:07:29 10° W 23:09:09 22° W 23:09:09 22° W
Meteor 2-6 Rocket 4.0 23:11:23 65° SSW 23:12:14 89° WNW 23:17:40 10° NNE
Cosmos 2184 Rocket 4.2 23:07:14 10° NNW 23:13:29 62° W 23:14:58 49° SW
Cosmos 2327 Rocket 4.4 23:08:10 10° NNW 23:14:28 85° W 23:16:08 53° S
Cosmos 1869 Rocket 3.5 23:11:34 10° N 23:15:55 82° ENE 23:15:55 82° ENE
EO 1 Del DPAF 4.0 23:12:29 10° NNE 23:15:29 46° ENE 23:15:29 46° ENE
SJ 16-02 3.2 23:17:22 20° E 23:17:22 20° E 23:20:30 10° NE
Cosmos 1515 Rocket 3.8 23:19:41 59° W 23:19:51 59° WNW 23:24:16 10° N
Cosmos 2278 Rocket 3.6 23:19:29 23° ESE 23:20:15 23° ESE 23:24:37 10° NE
Cosmos 1666 3.7 23:17:08 10° NNW 23:20:00 39° WNW 23:20:00 39° WNW
ATLAS 5 CENTAUR R/B 2.2 23:19:07 10° NW 23:24:26 86° NE 23:27:06 36° SE
USA 305 3.3 23:25:51 53° E 23:25:51 53° E 23:29:11 10° ENE
SeaSat 1 3.6 23:24:10 10° NNE 23:28:45 39° NW 23:31:05 24° W
Cosmos 2341 Rocket 4.1 23:22:27 10° N 23:28:50 73° ENE 23:31:01 43° SSE
EO 1 Delta rocket 4.4 23:27:58 41° ESE 23:29:00 49° ENE 23:33:34 10° N
Cosmos 1295 Rocket 4.4 23:22:49 10° NNW 23:29:06 77° W 23:30:44 52° S
SL-8 Rocket 4.3 23:24:54 10° N 23:31:10 61° ENE 23:33:40 37° SE
Cosmos 1241 Rocket 4.5 23:33:02 48° SSW 23:35:04 83° SE 23:41:43 10° NE
Cosmos 1544 3.6 23:33:10 10° N 23:36:05 55° N 23:36:05 55° N
Cosmos 1707 Rocket 3.9 23:42:09 50° ESE 23:42:19 51° E 23:46:33 10° NNE
USA 306 2.9 23:43:11 78° ENE 23:43:11 78° ENE 23:47:14 10° E
COSMOS 2406 3.1 23:37:28 10° NNW 23:43:12 88° ENE 23:44:55 47° SSE
Cosmos 1844 3.8 23:41:40 49° SW 23:43:14 76° WNW 23:48:59 10° NNE
Cosmos 158 Rocket 4.1 23:38:45 10° NNW 23:43:41 64° ENE 23:45:07 43° ESE
USA 281 3.2 23:43:08 47° SSW 23:44:53 62° WSW 23:51:27 10° NNW
Cosmos 1503 Rocket 4.1 23:44:44 51° WSW 23:45:49 65° WNW 23:51:01 10° NNE
Helios 1B rocket 4.4 23:43:58 10° NE 23:47:01 20° E 23:47:40 19° ESE
Cosmos 1812 4.1 23:48:00 29° WNW 23:48:00 29° WNW 23:51:22 10° N
Cosmos 962 Rocket 4.4 23:44:43 10° NNW 23:50:56 76° W 23:52:36 50° SSW
Cosmos 1238 Rocket 4.1 23:46:37 10° N 23:53:03 79° ENE 23:55:40 40° SSE
Gbstr 26 Del rocket 4.0 23:53:47 48° SSE 23:54:11 49° SSE 23:59:29 10° E
